GW1374 Weather Reports


time (UTC)temp
C
wind
direction
speed
KPH
gust
KPH
rain 1hr
cm
rain 24hr
cm
rain mn
cm
humidity
%
barometer
mb
20260506180051 8 57 1.6 6.4 0.00 0.94 0.81 95 1006.1
20260506174545 8 330 1.6 6.4 0.00 0.99 0.81 95 1005.8
20260506173057 8 51 0.0 6.4 0.00 0.99 0.81 95 1005.6
20260506171546 8 292 1.6 6.4 0.00 0.99 0.81 95 1005.6
20260506170050 9 41 1.6 4.8 0.03 0.99 0.81 95 1005.7
20260506164547 9 344 3.2 9.7 0.03 0.99 0.81 94 1005.6
20260506163045 11 312 3.2 11.3 0.03 0.99 0.81 93 1005.4
20260506161549 12 291 1.6 6.4 0.03 0.99 0.81 96 1005.3
20260506160048 12 247 1.6 6.4 0.00 0.97 0.79 96 1005.0
20260506154550 12 236 1.6 4.8 0.03 0.97 0.79 96 1005.3
20260506153106 12 249 3.2 6.4 0.05 0.97 0.79 96 1005.4
20260506151545 12 178 1.6 6.4 0.05 0.97 0.79 96 1005.3
20260506150058 12 221 1.6 6.4 0.08 0.97 0.79 96 1005.4
20260506144554 12 212 1.6 4.8 0.08 0.94 0.76 96 1005.2
20260506143048 12 205 1.6 4.8 0.08 0.91 0.74 96 1005.1
20260506141542 12 255 1.6 4.8 0.15 0.91 0.74 96 1005.2
20260506140043 11 218 1.6 6.4 0.18 0.89 0.71 96 1005.4
20260506134549 11 232 1.6 4.8 0.25 0.86 0.69 96 1005.5
20260506133044 11 209 1.6 6.4 0.33 0.84 0.66 96 1005.7
20260506131546 11 265 3.2 6.4 0.30 0.76 0.58 96 1005.9
20260506130048 10 178 1.6 4.8 0.25 0.71 0.53 96 1006.1
20260506124547 10 221 1.6 6.4 0.18 0.61 0.43 96 1006.1
20260506123047 10 221 1.6 4.8 0.13 0.51 0.33 96 1005.7
20260506121545 10 265 0.0 3.2 0.20 0.46 0.28 95 1005.6
20260506120043 10 126 1.6 4.8 0.20 0.46 0.28 95 1005.6
20260506114544 9 193 1.6 3.2 0.20 0.43 0.25 95 1005.8
20260506113044 9 76 0.0 3.2 0.15 0.38 0.20 95 1006.4
20260506111545 9 165 0.0 3.2 0.03 0.25 0.08 95 1006.5
20260506110043 9 119 0.0 3.2 0.05 0.25 0.08 95 1006.4
20260506104550 9 108 0.0 3.2 0.03 0.23 0.05 95 1006.3
20260506103053 8 105 0.0 3.2 0.03 0.23 0.05 95 1006.3
20260506101544 8 46 1.6 3.2 0.03 0.20 0.03 94 1006.1
20260506100041 9 44 1.6 3.2 0.03 0.20 0.03 94 1006.0
20260506094549 9 0 0.0 3.2 0.03 0.20 0.03 94 1006.0
20260506093042 9 316 0.0 3.2 0.03 0.20 0.03 94 1005.9
20260506091554 9 153 1.6 3.2 0.00 0.18 0.00 93 1005.9
20260506090056 9 129 0.0 4.8 0.00 0.18 0.00 93 1006.2
20260506084548 9 105 0.0 4.8 0.00 0.18 0.00 93 1006.4
20260506083048 9 265 3.2 6.4 0.00 0.18 0.00 92 1006.6
20260506081547 9 108 0.0 4.8 0.00 0.18 0.00 92 1006.6
20260506073050 9 64 1.6 6.4 0.00 0.18 0.00 90 1006.5
20260506071549 9 74 3.2 6.4 0.00 0.18 0.00 90 1006.7
20260506061544 10 93 1.6 6.4 0.00 0.18 0.00 89 1007.3
20260506044542 10 61 1.6 4.8 0.00 0.18 0.00 88 1008.5
20260506043039 10 102 3.2 4.8 0.00 0.18 0.00 88 1008.5
20260506041544 10 123 3.2 6.4 0.00 0.18 0.00 88 1008.3
20260506040046 10 105 3.2 4.8 0.00 0.18 0.00 88 1008.6
20260506034557 10 93 3.2 6.4 0.00 0.18 0.18 87 1008.7
20260506033044 10 106 3.2 4.8 0.00 0.18 0.18 87 1008.9
20260506031543 10 80 3.2 6.4 0.00 0.18 0.18 86 1008.8
20260506030046 11 88 1.6 6.4 0.00 0.18 0.18 85 1008.8
20260506024605 11 51 3.2 6.4 0.00 0.18 0.18 85 1008.8
20260506023044 11 17 3.2 8.0 0.00 0.18 0.18 84 1008.9
20260506021552 11 80 4.8 8.0 0.00 0.18 0.18 84 1009.2
20260506020041 12 43 1.6 6.4 0.00 0.18 0.18 84 1009.0
20260506014550 13 51 3.2 8.0 0.00 0.18 0.18 84 1008.6
20260506013101 13 36 1.6 4.8 0.00 0.18 0.18 88 1008.2
20260506011544 14 55 1.6 8.0 0.00 0.18 0.18 86 1007.9
20260506010046 14 57 1.6 6.4 0.00 0.18 0.18 86 1007.6
20260506004541 15 30 1.6 6.4 0.00 0.18 0.18 87 1007.4
20260506003042 15 9 1.6 4.8 0.00 0.18 0.18 88 1007.3
20260506001544 15 16 1.6 4.8 0.00 0.18 0.18 88 1007.1
20260506000050 15 168 1.6 3.2 0.00 0.18 0.18 88 1006.9
20260505234545 15 26 0.0 3.2 0.00 0.18 0.18 86 1006.6
20260505233041 16 178 1.6 4.8 0.03 0.18 0.18 86 1006.7
20260505231543 16 238 1.6 3.2 0.03 0.18 0.18 86 1006.6
20260505230054 16 239 1.6 3.2 0.03 0.18 0.18 86 1006.5
20260505224546 16 178 1.6 6.4 0.03 0.18 0.18 84 1006.5
20260505223056 16 0 0.0 4.8 0.00 0.15 0.15 83 1006.6
20260505221544 17 255 1.6 4.8 0.00 0.15 0.15 80 1006.4
20260505220052 17 51 0.0 6.4 0.00 0.15 0.15 81 1005.8
20260505214542 17 296 1.6 4.8 0.00 0.15 0.15 80 1005.9
20260505213056 17 221 0.0 4.8 0.00 0.15 0.15 83 1005.7
20260505211542 16 227 1.6 4.8 0.00 0.15 0.15 86 1005.6
20260505210043 16 265 1.6 4.8 0.00 0.15 0.15 87 1005.4
20260505204542 15 273 1.6 4.8 0.08 0.15 0.15 90 1005.6
20260505203047 14 270 1.6 8.0 0.10 0.15 0.15 89 1006.0
20260505201542 15 319 3.2 8.0 0.10 0.15 0.15 90 1006.1
20260505200046 14 298 4.8 17.7 0.10 0.15 0.15 89 1006.7
20260505194547 15 304 6.4 25.7 0.03 0.08 0.08 83 1007.1
20260505193041 21 288 4.8 11.3 0.00 0.05 0.05 51 1005.6
20260505191546 22 279 4.8 12.9 0.00 0.05 0.05 44 1004.4
20260505190047 22 240 4.8 14.5 0.00 0.05 0.05 47 1004.4
20260505184548 22 196 6.4 16.1 0.00 0.05 0.05 51 1004.4
20260505183057 22 223 8.0 16.1 0.03 0.05 0.05 50 1004.6
20260505181546 22 284 4.8 16.1 0.05 0.05 0.05 55 1005.0